HS2LXA-WX Weather Reports


Display with metric or nautical units.
time (UTC)temp
F
wind
direction
speed
MPH
gust
MPH
rain 1hr
in
rain 24hr
in
rain mn
in
humidity
%
barometer
mb
20260905150834 87 202 18.0 40.0 0.00 0.00 0.00 94 1011.3
20260905145835 87 112 2.0 6.0 0.00 0.00 0.00 93 1011.1
20260905144834 87 67 5.0 12.0 0.00 0.00 0.00 92 1011.0
20260905142917 88 202 3.0 7.0 0.00 0.00 0.00 91 1010.6
20260905141913 87 315 9.0 21.0 0.00 0.00 0.00 91 1010.6
20260905140913 88 202 5.0 13.0 0.00 0.00 0.00 90 1010.6
20260905135913 88 0 0.0 0.0 0.00 0.00 0.00 89 1010.2
20260905134913 88 315 29.0 66.0 0.00 0.00 0.00 89 1010.2
20260905133913 88 202 8.0 19.0 0.00 0.00 0.00 88 1010.0
20260905132024 88 0 5.0 13.0 0.00 0.00 0.00 89 1009.8
20260905131024 88 112 11.0 25.0 0.00 0.00 0.00 88 1009.7
20260905130024 88 202 6.0 14.0 0.00 0.00 0.00 87 1009.8
20260905124448 88 202 5.0 12.0 0.00 0.00 0.00 87 1009.9
20260905123448 88 202 3.0 7.0 0.00 0.00 0.00 87 1009.5
20260905122448 88 112 5.0 12.0 0.00 0.00 0.00 86 1009.5
20260905121122 88 202 7.0 16.0 0.00 0.00 0.00 86 1009.5
20260905115751 88 67 22.0 50.0 0.00 0.00 0.00 86 1009.3
20260905114751 88 112 15.0 34.0 0.00 0.00 0.00 85 1009.4
20260905113751 88 67 2.0 6.0 0.00 0.00 0.00 85 1009.3
20260905112033 89 315 11.0 24.0 0.00 0.00 0.00 85 1009.2
20260905111033 89 67 12.0 28.0 0.00 0.00 0.00 84 1009.2
20260905104054 89 0 0.0 0.0 0.00 0.00 0.00 82 1008.5
20260905102532 90 67 0.0 0.0 0.00 0.00 0.00 81 1008.1
20260905101533 90 67 2.0 4.0 0.00 0.00 0.00 81 1007.9
20260905095408 90 315 14.0 31.0 0.00 0.00 0.00 81 1008.0
20260905094408 90 202 19.0 43.0 0.00 0.00 0.00 80 1008.0
20260905093408 91 67 17.0 39.0 0.00 0.00 0.00 80 1007.9
20260905092408 91 315 8.0 19.0 0.00 0.00 0.00 80 1007.8
20260905090719 91 202 39.0 87.0 0.00 0.00 0.00 81 1007.9
20260905085719 91 315 18.0 42.0 0.00 0.00 0.00 80 1007.9
20260905084023 92 67 13.0 30.0 0.00 0.00 0.00 80 1008.0
20260905082133 91 202 6.0 15.0 0.00 0.00 0.00 79 1008.2
20260905081132 91 67 4.0 10.0 0.00 0.00 0.00 80 1008.3
20260905080132 91 202 4.0 10.0 0.00 0.00 0.00 80 1008.2
20260905075132 92 67 17.0 39.0 0.00 0.00 0.00 78 1008.1
20260905074132 92 135 0.0 0.0 0.00 0.00 0.00 78 1008.2
20260905071851 92 67 34.0 77.0 0.00 0.00 0.00 78 1008.4
20260905070852 91 202 33.0 74.0 0.00 0.00 0.00 78 1008.6
20260905065852 93 202 11.0 25.0 0.00 0.00 0.00 77 1008.7
20260905064405 94 112 9.0 20.0 0.00 0.00 0.00 76 1008.9
20260905063404 94 67 20.0 46.0 0.00 0.00 0.00 75 1009.1
20260905062405 93 67 8.0 19.0 0.00 0.00 0.00 76 1009.4
20260905061403 94 112 8.0 19.0 0.00 0.00 0.00 76 1009.6
20260905060403 93 0 22.0 50.0 0.00 0.00 0.00 77 1009.8
20260905055403 93 202 24.0 55.0 0.00 0.00 0.00 77 1010.0
20260905053833 93 202 11.0 25.0 0.00 0.00 0.00 77 1010.4
20260905052833 93 0 29.0 65.0 0.00 0.00 0.00 77 1010.6
20260905051833 93 112 1.0 3.0 0.00 0.00 0.00 77 1010.9
20260905045930 92 0 0.0 0.0 0.00 0.00 0.00 78 1011.2
20260905044932 92 202 7.0 16.0 0.00 0.00 0.00 78 1011.3
20260905043928 93 315 35.0 78.0 0.00 0.00 0.00 76 1011.3
20260905042928 93 67 14.0 33.0 0.00 0.00 0.00 77 1011.4
20260905041111 92 0 7.0 16.0 0.00 0.00 0.00 78 1011.6
20260905035725 91 67 6.0 15.0 0.00 0.00 0.00 81 1011.7
20260905032059 93 315 7.0 16.0 0.00 0.00 0.00 77 1011.9
20260905031059 92 0 0.0 0.0 0.00 0.00 0.00 78 1011.9
20260905023714 90 315 24.0 55.0 0.00 0.00 0.00 81 1012.2
20260905021728 91 202 0.0 0.0 0.00 0.00 0.00 79 1012.1
20260905020420 92 202 7.0 16.0 0.00 0.00 0.00 80 1012.0
20260905015419 92 202 9.0 21.0 0.00 0.00 0.00 80 1011.9
20260905014419 92 315 1.0 2.0 0.00 0.00 0.00 80 1011.8
20260905013419 91 202 5.0 13.0 0.00 0.00 0.00 81 1011.8
20260905012033 90 202 3.0 8.0 0.00 0.00 0.00 82 1011.9
20260905011033 90 67 2.0 4.0 0.00 0.00 0.00 83 1011.7
20260905005917 90 202 7.0 16.0 0.00 0.00 0.00 83 1011.5
20260905004911 89 202 2.0 4.0 0.00 0.00 0.00 84 1011.3
20260905003911 89 0 5.0 12.0 0.00 0.00 0.00 86 1011.2
20260905002911 89 67 0.0 0.0 0.00 0.00 0.00 85 1011.0
20260905001905 89 315 0.0 0.0 0.00 0.00 0.00 84 1010.9
20260905000901 89 67 2.0 6.0 0.00 0.00 0.00 84 1010.8
20260904235901 89 315 0.0 0.0 0.00 0.00 0.00 83 1010.7
20260904234441 88 0 0.0 0.0 0.00 0.00 0.00 84 1010.6
20260904233441 89 202 0.0 0.0 0.00 0.00 0.00 83 1010.4
20260904232440 88 202 0.0 0.0 0.00 0.00 0.00 83 1010.4
20260904231440 89 202 0.0 0.0 0.00 0.00 0.00 83 1010.3
20260904230440 89 0 0.0 0.0 0.00 0.00 0.00 82 1010.2
20260904225440 89 315 0.0 0.0 0.00 0.00 0.00 82 1010.2
20260904224107 88 202 0.0 0.0 0.00 0.00 0.00 83 1010.1
20260904223107 89 202 0.0 0.0 0.00 0.00 0.00 82 1010.0
20260904222108 89 0 0.0 0.0 0.00 0.00 0.00 82 1009.9
20260904220529 89 67 0.0 0.0 0.00 0.00 0.00 83 1009.7
20260904215529 89 0 6.0 14.0 0.00 0.00 0.00 83 1009.5
20260904214529 89 202 3.0 7.0 0.00 0.00 0.00 83 1009.4
20260904213529 89 0 3.0 6.0 0.00 0.00 0.00 84 1009.4
20260904212528 89 202 4.0 9.0 0.00 0.00 0.00 83 1009.4
20260904211531 89 202 2.0 5.0 0.00 0.00 0.00 85 1009.2
20260904210527 89 67 0.0 0.0 0.00 0.00 0.00 84 1009.2
20260904205527 89 202 2.0 5.0 0.00 0.00 0.00 85 1009.0
20260904203831 90 67 0.0 0.0 0.00 0.00 0.00 87 1009.0
20260904201812 90 67 0.0 0.0 0.00 0.00 0.00 89 1009.1
20260904193508 86 270 0.0 0.0 0.00 0.00 0.00 97 1009.3
20260904192508 86 270 0.0 0.0 0.00 0.00 0.00 96 1009.3
20260904191508 86 270 0.0 0.0 0.00 0.00 0.00 97 1009.4
20260904190243 86 270 0.0 0.0 0.00 0.00 0.00 96 1009.5
20260904184856 86 270 0.0 0.0 0.00 0.00 0.00 97 1009.6
20260904183855 86 270 0.0 0.0 0.00 0.00 0.00 97 1009.7
20260904182619 86 270 0.0 0.0 0.00 0.00 0.00 97 1009.7
20260904181619 86 0 0.0 0.0 0.00 0.00 0.00 96 1009.7
20260904180544 86 202 0.0 0.0 0.00 0.00 0.00 96 1009.7
20260904175542 86 202 0.0 0.0 0.00 0.00 0.00 96 1009.9
20260904173825 86 67 0.0 0.0 0.00 0.00 0.00 95 1009.9
20260904172825 87 67 0.0 0.0 0.00 0.00 0.00 95 1010.1
20260904171654 87 67 0.0 0.0 0.00 0.00 0.00 95 1010.2
20260904170654 86 67 0.0 0.0 0.00 0.00 0.00 95 1010.3
20260904165654 87 67 0.0 0.0 0.00 0.00 0.00 94 1010.2
20260904164654 87 67 0.0 0.0 0.00 0.00 0.00 94 1010.3
20260904163653 87 67 0.0 0.0 0.00 0.00 0.00 93 1010.2
20260904162654 87 67 0.0 0.0 0.00 0.00 0.00 93 1010.5
20260904160602 87 67 0.0 0.0 0.00 0.00 0.00 93 1010.5
20260904155602 87 112 0.0 0.0 0.00 0.00 0.00 93 1010.7
20260904154146 87 67 1.0 4.0 0.00 0.00 0.00 93 1010.7
20260904153145 87 315 0.0 0.0 0.00 0.00 0.00 93 1010.9
20260904152144 87 112 16.0 36.0 0.00 0.00 0.00 92 1010.9